When you browse on this site, cookies collect data to enhance your experience and personalize the content and advertising you see.
Visit our Privacy Policy to learn more. By continuing to use the site, you agree to this use of cookies and data.
  • In Belgium
  • List of Countries
  • For 7 days
  • Water Temperature
  • Satellite Maps
  • Weather Map
  • Weather Widgets
  • user-avatar
    Login

    Hourly Weather Bilzen

    Today, 16 December, Sunday

    Time Temperature Precipitation Wind Pressure Humidity
    00:00 -2°C° 0 mm 5 mps 753 mmHg 84%
    01:00 -1°C° 0.8 mm 5 mps 753 mmHg 86%
    02:00 -1°C° 0.8 mm 5 mps 752 mmHg 88%
    03:00 -1°C° 0.8 mm 5 mps 752 mmHg 90%
    04:00 -1°C° 0.1 mm 4 mps 752 mmHg 90%
    05:00 -1°C° 0.1 mm 4 mps 752 mmHg 91%
    06:00 -1°C° 0.1 mm 4 mps 752 mmHg 91%
    07:00 0°C° 0 mm 4 mps 752 mmHg 93%
    08:00 0°C° 0 mm 4 mps 752 mmHg 94%
    09:00 +1°C° 0 mm 3 mps 752 mmHg 96%
    10:00 +2°C° 0.1 mm 3 mps 752 mmHg 96%
    11:00 +2°C° 0.1 mm 3 mps 752 mmHg 97%
    12:00 +3°C° 0.1 mm 3 mps 752 mmHg 98%
    13:00 +3°C° 0.1 mm 3 mps 753 mmHg 98%
    14:00 +3°C° 0.1 mm 3 mps 753 mmHg 98%
    15:00 +3°C° 0.1 mm 3 mps 753 mmHg 98%
    16:00 +3°C° 0 mm 3 mps 753 mmHg 98%
    17:00 +3°C° 0 mm 3 mps 753 mmHg 97%
    18:00 +2°C° 0 mm 3 mps 754 mmHg 97%
    19:00 +2°C° 0 mm 3 mps 754 mmHg 96%
    20:00 +2°C° 0 mm 3 mps 754 mmHg 96%
    21:00 +2°C° 0 mm 3 mps 755 mmHg 95%
    22:00 +2°C° 0 mm 3 mps 755 mmHg 95%
    23:00 +2°C° 0 mm 3 mps 755 mmHg 95%

    Tomorrow, 17 December, Monday

    Time Temperature Precipitation Wind Pressure Humidity
    00:00 +2°C° 0 mm 3 mps 755 mmHg 94%
    01:00 +2°C° 0 mm 3 mps 755 mmHg 94%
    02:00 +2°C° 0 mm 3 mps 755 mmHg 93%
    03:00 +3°C° 0 mm 4 mps 754 mmHg 93%
    04:00 +3°C° 0.1 mm 4 mps 755 mmHg 92%
    05:00 +3°C° 0.1 mm 4 mps 755 mmHg 92%
    06:00 +3°C° 0.1 mm 4 mps 755 mmHg 92%
    07:00 +3°C° 0.1 mm 4 mps 756 mmHg 93%
    08:00 +3°C° 0.1 mm 4 mps 756 mmHg 93%
    09:00 +4°C° 0.1 mm 3 mps 757 mmHg 93%
    10:00 +4°C° 0 mm 3 mps 757 mmHg 93%
    11:00 +4°C° 0 mm 3 mps 757 mmHg 94%
    12:00 +5°C° 0 mm 3 mps 758 mmHg 94%
    13:00 +5°C° 0.1 mm 3 mps 759 mmHg 94%
    14:00 +5°C° 0.1 mm 4 mps 759 mmHg 95%
    15:00 +5°C° 0.1 mm 4 mps 760 mmHg 95%
    16:00 +4°C° 0 mm 3 mps 760 mmHg 95%
    17:00 +4°C° 0 mm 3 mps 761 mmHg 95%
    18:00 +3°C° 0 mm 3 mps 762 mmHg 95%
    19:00 +3°C° 0 mm 3 mps 762 mmHg 95%
    20:00 +3°C° 0 mm 3 mps 763 mmHg 95%
    21:00 +3°C° 0 mm 3 mps 763 mmHg 95%
    22:00 +3°C° 0 mm 3 mps 763 mmHg 94%
    23:00 +3°C° 0 mm 3 mps 763 mmHg 94%

    Day after tomorrow, 18 December, Tuesday

    Time Temperature Precipitation Wind Pressure Humidity
    00:00 +3°C° 0 mm 3 mps 763 mmHg 94%
    01:00 +3°C° 0 mm 3 mps 763 mmHg 94%
    02:00 +3°C° 0 mm 3 mps 763 mmHg 94%
    03:00 +3°C° 0 mm 4 mps 763 mmHg 93%
    04:00 +3°C° 0 mm 4 mps 763 mmHg 93%
    05:00 +3°C° 0 mm 4 mps 762 mmHg 93%
    06:00 +3°C° 0 mm 4 mps 762 mmHg 93%
    07:00 +3°C° 0 mm 4 mps 762 mmHg 92%
    08:00 +3°C° 0 mm 4 mps 762 mmHg 91%
    09:00 +3°C° 0 mm 4 mps 762 mmHg 90%
    10:00 +4°C° 0 mm 4 mps 761 mmHg 85%
    11:00 +5°C° 0 mm 5 mps 760 mmHg 80%
    12:00 +6°C° 0 mm 5 mps 760 mmHg 75%
    13:00 +6°C° 0 mm 5 mps 759 mmHg 74%
    14:00 +5°C° 0 mm 5 mps 758 mmHg 73%
    15:00 +5°C° 0 mm 5 mps 757 mmHg 73%
    16:00 +3°C° 0 mm 5 mps 757 mmHg 72%
    17:00 +3°C° 0 mm 5 mps 757 mmHg 72%
    18:00 +3°C° 0 mm 5 mps 756 mmHg 72%
    19:00 +3°C° 0 mm 6 mps 756 mmHg 72%
    20:00 +3°C° 0 mm 6 mps 755 mmHg 72%
    21:00 +3°C° 0 mm 6 mps 755 mmHg 72%
    22:00 +4°C° 0 mm 6 mps 755 mmHg 73%
    23:00 +4°C° 0 mm 6 mps 754 mmHg 74%

    19 December, Wednesday

    Time Temperature Precipitation Wind Pressure Humidity
    00:00 +4°C° 0 mm 6 mps 754 mmHg 75%
    01:00 +4°C° 0.2 mm 6 mps 754 mmHg 78%
    02:00 +4°C° 0.2 mm 6 mps 754 mmHg 81%
    03:00 +5°C° 0.2 mm 6 mps 754 mmHg 84%
    04:00 +6°C° 0.4 mm 5 mps 754 mmHg 86%
    05:00 +6°C° 0.4 mm 5 mps 754 mmHg 88%
    06:00 +6°C° 0.4 mm 5 mps 754 mmHg 89%
    07:00 +6°C° 0.1 mm 4 mps 754 mmHg 91%
    08:00 +6°C° 0.1 mm 4 mps 755 mmHg 92%
    09:00 +7°C° 0.1 mm 3 mps 755 mmHg 93%
    10:00 +8°C° 0 mm 3 mps 755 mmHg 91%
    11:00 +8°C° 0 mm 3 mps 755 mmHg 89%
    12:00 +9°C° 0 mm 3 mps 755 mmHg 87%
    13:00 +8°C° 0 mm 3 mps 755 mmHg 88%
    14:00 +8°C° 0 mm 2 mps 755 mmHg 90%
    15:00 +7°C° 0 mm 2 mps 755 mmHg 92%
    16:00 +7°C° 0 mm 2 mps 755 mmHg 93%
    17:00 +6°C° 0 mm 2 mps 755 mmHg 93%
    18:00 +6°C° 0 mm 2 mps 756 mmHg 93%
    19:00 +6°C° 0 mm 2 mps 756 mmHg 94%
    20:00 +5°C° 0 mm 2 mps 756 mmHg 94%
    21:00 +5°C° 0 mm 2 mps 756 mmHg 94%
    22:00 +4°C° 0 mm 3 mps 756 mmHg 94%
    23:00 +4°C° 0 mm 3 mps 756 mmHg 95%

    20 December, Thursday

    Time Temperature Precipitation Wind Pressure Humidity
    00:00 +4°C° 0 mm 3 mps 757 mmHg 95%
    01:00 +4°C° 0 mm 3 mps 757 mmHg 95%
    02:00 +4°C° 0 mm 3 mps 757 mmHg 95%
    03:00 +4°C° 0 mm 3 mps 757 mmHg 95%
    04:00 +3°C° 0 mm 3 mps 757 mmHg 95%
    05:00 +3°C° 0 mm 3 mps 758 mmHg 95%
    06:00 +3°C° 0 mm 3 mps 758 mmHg 95%
    07:00 +3°C° 0 mm 3 mps 758 mmHg 94%
    08:00 +3°C° 0 mm 4 mps 758 mmHg 93%
    09:00 +4°C° 0 mm 4 mps 759 mmHg 91%
    10:00 +3°C° 0 mm 5 mps 758 mmHg 87%
    11:00 +5°C° 0 mm 5 mps 758 mmHg 84%
    12:00 +5°C° 0 mm 6 mps 758 mmHg 80%
    13:00 +5°C° 0.2 mm 5 mps 758 mmHg 81%
    14:00 +5°C° 0.2 mm 5 mps 758 mmHg 82%
    15:00 +5°C° 0.2 mm 5 mps 758 mmHg 83%
    16:00 +5°C° 0.8 mm 5 mps 758 mmHg 85%
    17:00 +4°C° 0.8 mm 6 mps 758 mmHg 86%
    18:00 +4°C° 0.8 mm 6 mps 758 mmHg 87%
    19:00 +4°C° 1 mm 6 mps 758 mmHg 88%
    20:00 +5°C° 1 mm 5 mps 758 mmHg 89%
    21:00 +5°C° 1 mm 5 mps 758 mmHg 90%
    22:00 +5°C° 0 mm 5 mps 758 mmHg 91%
    23:00 +5°C° 0 mm 4 mps 758 mmHg 92%

    21 December, Friday

    Time Temperature Precipitation Wind Pressure Humidity
    00:00 +5°C° 0 mm 4 mps 759 mmHg 93%
    01:00 +5°C° 0 mm 4 mps 758 mmHg 93%
    02:00 +5°C° 0 mm 4 mps 758 mmHg 93%
    03:00 +5°C° 0 mm 4 mps 758 mmHg 93%
    04:00 +5°C° 0 mm 4 mps 758 mmHg 92%
    05:00 +5°C° 0 mm 5 mps 757 mmHg 90%
    06:00 +6°C° 0 mm 5 mps 757 mmHg 89%
    07:00 +5°C° 0.6 mm 6 mps 756 mmHg 88%
    08:00 +5°C° 0.6 mm 6 mps 756 mmHg 86%
    09:00 +5°C° 0.6 mm 7 mps 755 mmHg 85%
    10:00 +5°C° 1.3 mm 7 mps 754 mmHg 85%
    11:00 +5°C° 1.3 mm 8 mps 753 mmHg 84%
    12:00 +5°C° 1.3 mm 8 mps 752 mmHg 84%
    13:00 +6°C° 0.9 mm 8 mps 752 mmHg 85%
    14:00 +7°C° 0.9 mm 8 mps 752 mmHg 86%
    15:00 +8°C° 0.9 mm 7 mps 751 mmHg 87%
    16:00 +8°C° 0.1 mm 7 mps 752 mmHg 88%
    17:00 +8°C° 0.1 mm 6 mps 753 mmHg 88%
    18:00 +8°C° 0.1 mm 6 mps 754 mmHg 89%
    19:00 +8°C° 0 mm 5 mps 754 mmHg 90%
    20:00 +7°C° 0 mm 5 mps 755 mmHg 91%
    21:00 +7°C° 0 mm 5 mps 756 mmHg 92%
    22:00 +7°C° 0 mm 5 mps 756 mmHg 91%
    23:00 +7°C° 0 mm 6 mps 756 mmHg 90%
    Show more